Location: Meinert
(37.9441°N, 122.0275°W)
Time: 18:34:25
(UTC+00:00)

NOSS 3-1 (A) - Pass Details

Date: 18 April 2024
Orbit: 660 x 1550 km, 63.4° (Epoch: 15 May)

Event Time Altitude Azimuth Distance (km) Brightness Sun altitude
Rises 12:56:09 0° 325° (NW) 4,000 6.5 -6.8°
Reaches altitude 10° 12:58:40 10° 324° (NW) 3,152 6.0 -6.3°
Maximum altitude 13:06:28 75° 241° (WSW) 1,425 4.3 -4.9°
Drops below altitude 10° 13:15:38 10° 158° (SSE) 3,669 6.6 -3.1°
Sets 13:18:47 0° 156° (SSE) 4,686 7.1 -2.5°
